CST,Max TemperatureF,Mean TemperatureF,Min TemperatureF,Max Dew PointF,MeanDew PointF,Min DewpointF,Max Humidity, Mean Humidity, Min Humidity, Max Sea Level PressureIn, Mean Sea Level PressureIn, Min Sea Level PressureIn, Max VisibilityMiles, Mean VisibilityMiles, Min VisibilityMiles, Max Wind SpeedMPH, Mean Wind SpeedMPH, Max Gust SpeedMPH,PrecipitationIn, CloudCover, Events, WindDirDegrees
2013-2-1,35,25,15,19,11,5,74,60,35,30.47,30.34,30.19,10,10,10,12,6,,0.00,0,,121
2013-2-2,55,40,26,32,27,19,86,64,38,30.27,30.21,30.16,10,10,10,16,4,22,0.00,1,,257
2013-2-3,53,43,33,30,27,23,81,56,30,30.30,30.16,29.91,10,10,10,15,9,17,0.00,0,,180
2013-2-4,59,46,32,34,32,28,93,59,36,29.99,29.89,29.80,10,10,10,16,9,18,0.00,0,,9
2013-2-5,62,45,28,36,31,27,100,68,27,30.07,30.00,29.94,10,9,5,10,3,,0.00,0,,29
2013-2-6,64,48,32,46,38,30,93,68,48,30.07,29.98,29.89,10,10,10,23,6,30,0.00,3,,154
2013-2-7,51,43,35,50,44,32,100,87,71,30.18,29.96,29.85,10,7,0,20,9,26,0.00,5,Fog-Rain-Thunderstorm,13
2013-2-8,44,37,30,34,31,28,100,85,61,30.35,30.26,30.17,10,7,4,16,9,17,0.00,4,,58
2013-2-9,46,40,33,41,35,32,100,84,57,30.18,30.01,29.73,10,8,2,18,9,22,0.00,5,Rain-Thunderstorm,146
2013-2-10,55,44,32,46,35,27,100,69,35,30.06,29.74,29.59,10,8,1,30,15,37,0.00,2,Rain-Thunderstorm,230
2013-2-11,48,38,28,32,26,23,93,68,37,30.23,30.15,30.06,10,10,10,13,5,,0.00,0,,318
2013-2-12,39,34,30,32,29,27,100,86,65,30.16,30.07,29.99,10,7,1,10,6,,0.00,6,Rain-Snow,14
2013-2-13,51,40,30,36,32,30,100,82,47,30.01,29.96,29.91,10,7,0,14,7,18,0.00,2,Fog,235
2013-2-14,53,42,32,34,31,27,93,67,44,30.22,30.06,29.93,10,10,10,15,7,25,0.00,2,,321
2013-2-15,41,34,26,28,20,10,93,62,33,30.41,30.34,30.23,10,10,3,17,12,25,0.00,1,Snow,332
2013-2-16,39,30,21,27,18,14,86,62,36,30.37,30.24,30.07,10,10,5,17,9,22,0.00,2,Snow,226
2013-2-17,64,46,28,32,28,18,81,52,30,30.07,29.90,29.70,10,10,10,24,9,31,0.00,0,,168
2013-2-18,59,46,32,46,35,23,77,60,38,30.16,29.77,29.57,10,10,10,30,22,44,0.00,2,,268
2013-2-19,44,34,23,27,19,14,86,59,34,30.35,30.27,30.16,10,10,10,14,6,22,0.00,0,,346
2013-2-20,35,32,28,30,20,10,93,65,44,30.32,30.20,30.06,10,8,1,17,9,21,0.00,7,Snow,74
2013-2-21,32,28,24,32,30,21,100,94,69,30.05,29.82,29.70,10,6,1,21,10,24,0.00,8,Snow-Thunderstorm,84
2013-2-22,30,24,17,23,19,14,93,82,69,30.15,30.06,29.91,10,10,10,15,9,20,0.00,0,,286
2013-2-23,39,28,17,28,22,14,93,79,61,30.13,30.03,29.95,10,10,4,7,1,,0.00,0,,174
2013-2-24,59,44,28,36,31,23,93,71,38,29.97,29.89,29.77,10,10,10,18,6,26,0.00,0,,100
2013-2-25,37,34,32,34,32,32,100,91,81,29.87,29.71,29.55,10,6,1,30,13,39,0.00,6,Rain-Snow,34
2013-2-26,35,34,32,32,32,30,100,94,81,29.92,29.70,29.53,7,4,2,29,17,36,0.00,8,Snow,329
2013-2-27,37,34,32,32,29,28,93,85,70,30.14,30.03,29.89,10,8,2,23,11,29,0.00,5,Snow,310
2013-2-28,35,32,30,30,28,27,87,83,75,30.24,30.19,30.12,10,10,10,17,11,24,0.00,6,,326